Regional Weather Roundup
Issued by NWS Charleston, WV

Home | Current Version | Previous Version | Text Only | Print | Product List | Glossary Off
Versions: 1 2 3 4 5 6 7 8 9 10 11 12 13 14 15 16 17 18 19 20 21 22 23 24 25 26 27 28 29 30 31 32 33 34 35 36 37 38 39 40 41 42 43 44 45 46 47 48 49 50

000
ASUS41 KRLX 211710
RWRRLX
West Virginia Regional Weather Roundup
National Weather Service Charleston WV
100 PM EDT MON AUG 21 2017

Note: "fair" indicates few or no clouds below 12,000 feet with no
significant weather and/or obstructions to visibility.

WVZ003-211800-
Northern Panhandle of West Virginia

CITY           SKY/WX    TMP DP  RH WIND       PRES   REMARKS
WHEELING       PTSUNNY   84  69  60 SW9       30.18F
$$

WVZ009-211800-
Northwest West Virginia

CITY           SKY/WX    TMP DP  RH WIND       PRES   REMARKS
PARKERSBURG    MOSUNNY   86  71  60 S6        30.21F
$$

WVZ006-211800-
Western West Virginia

CITY           SKY/WX    TMP DP  RH WIND       PRES   REMARKS
HUNTINGTON     SUNNY     89  68  49 S5        30.19F
$$

WVZ015-211800-
West Central West Virginia

CITY           SKY/WX    TMP DP  RH WIND       PRES   REMARKS
CHARLESTON     MOSUNNY   87  66  49 CALM      30.21F
$$

WVZ022-031-211800-
North Central West Virginia

CITY           SKY/WX    TMP DP  RH WIND       PRES   REMARKS
CLARKSBURG     MOSUNNY   88  66  48 W8        30.21F
MORGANTOWN     MOSUNNY   85  67  54 SW8       30.21F
$$

WVZ025-035-042-045-211800-
Southern West Virginia

CITY           SKY/WX    TMP DP  RH WIND       PRES   REMARKS
BECKLEY        MOSUNNY   83  63  50 W7        30.30F
LOGAN            N/A     84  70  61 CALM      30.25F
BLUEFIELD      MOSUNNY   82  64  54 VRB6      30.33S
LEWISBURG      SUNNY     81  65  58 SW8       30.29F
$$

WVZ047-211800-
Northern Mountains of West Virginia

CITY           SKY/WX    TMP DP  RH WIND       PRES   REMARKS
ELKINS         MOSUNNY   84  64  50 CALM      30.27F
$$

WVZ052-211800-
Eastern Panhandle of West Virginia

CITY           SKY/WX    TMP DP  RH WIND       PRES   REMARKS
MARTINSBURG    SUNNY     87  71  58 SW3       30.16F
PETERSBURG     SUNNY     91  67  44 W8        30.18F
$$



USA.gov is the U.S. government's official web portal to all federal, state and local government web resources and services.